Latest Weather Observations for Sellicks Hill

IDS60801

Issued at 11:32 am CDT Tuesday 27 January 2015 (issued every 30 minutes, with the page automatically refreshed every 10 minutes)

About weather observations | Map of weather stations | Latest weather observations for SA | Other Formats
Station Details ID: 023886 Name: MOUNT TERRIBLE RADAR Lat: -35.33 Lon: 138.50 Height: 385.7 m
Data from the previous 72 hours. | See also: Recent months for locations in South Australia
Date/Time
CDT
Temp
°C
App
Temp
°C
Dew
Point
Rel
Hum
%
Delta-T
°C
Wind Press
QNH
hPa
Press
MSL
hPa
Rain
since 9 am
mm
Dir
 
Spd
km/h
Gust
km/h
Spd
kts
Gust
kts
27/11:30am - - - - - SE 26 35 14 19 - - -
27/11:00am - - - - - SE 26 37 14 20 - - -
27/10:30am - - - - - SE 22 33 12 18 - - -
27/10:00am - - - - - SE 26 37 14 20 - - -
27/09:30am - - - - - SE 22 33 12 18 - - -
27/09:00am - - - - - SE 26 35 14 19 - - -
27/08:30am - - - - - SE 28 33 15 18 - - -
27/08:00am - - - - - SE 26 33 14 18 - - -
27/07:30am - - - - - SE 28 37 15 20 - - -
27/07:00am - - - - - SE 28 35 15 19 - - -
27/06:30am - - - - - SE 30 37 16 20 - - -
27/06:00am - - - - - SE 26 35 14 19 - - -
27/05:30am - - - - - ESE 26 33 14 18 - - -
27/05:00am - - - - - SE 24 32 13 17 - - -
27/04:30am - - - - - SE 24 33 13 18 - - -
27/04:00am - - - - - SSE 32 37 17 20 - - -
27/03:30am - - - - - SSE 30 33 16 18 - - -
27/03:00am - - - - - SSE 32 35 17 19 - - -
27/02:30am - - - - - SSE 33 37 18 20 - - -
27/02:00am - - - - - SSE 33 39 18 21 - - -
27/01:30am - - - - - SSE 33 39 18 21 - - -
27/01:00am - - - - - SSE 35 39 19 21 - - -
27/12:30am - - - - - SSE 35 39 19 21 - - -
27/12:00am - - - - - SSE 22 28 12 15 - - -
 
Date/Time
CDT
Temp
°C
App
Temp
°C
Dew
Point
Rel
Hum
%
Delta-T
°C
Wind Press
QNH
hPa
Press
MSL
hPa
Rain
since 9 am
mm
Dir
 
Spd
km/h
Gust
km/h
Spd
kts
Gust
kts
26/11:30pm - - - - - SSE 24 32 13 17 - - -
26/11:00pm - - - - - SSE 22 30 12 16 - - -
26/10:30pm - - - - - SSE 22 26 12 14 - - -
26/10:00pm - - - - - SSE 26 33 14 18 - - -
26/09:30pm - - - - - SSE 22 28 12 15 - - -
26/09:00pm - - - - - SSE 24 32 13 17 - - -
26/08:30pm - - - - - SSE 26 32 14 17 - - -
26/08:00pm - - - - - SSE 30 39 16 21 - - -
26/07:30pm - - - - - SSE 28 35 15 19 - - -
26/07:00pm - - - - - S 28 39 15 21 - - -
26/06:30pm - - - - - SSE 30 37 16 20 - - -
26/06:00pm - - - - - SSE 30 39 16 21 - - -
26/05:30pm - - - - - SSE 32 41 17 22 - - -
26/05:00pm - - - - - SSE 30 39 16 21 - - -
26/04:30pm - - - - - SSE 30 39 16 21 - - -
26/04:00pm - - - - - SSE 35 44 19 24 - - -
26/03:30pm - - - - - SSE 33 43 18 23 - - -
26/03:00pm - - - - - S 28 43 15 23 - - -
26/02:30pm - - - - - SSE 22 39 12 21 - - -
26/02:00pm - - - - - SSE 20 30 11 16 - - -
26/01:30pm - - - - - SSE 24 28 13 15 - - -
26/01:00pm - - - - - SSE 22 28 12 15 - - -
26/12:30pm - - - - - SSE 24 32 13 17 - - -
26/12:00pm - - - - - SSE 28 33 15 18 - - -
26/11:30am - - - - - SSE 33 41 18 22 - - -
26/11:00am - - - - - SSE 28 37 15 20 - - -
26/10:30am - - - - - SSE 28 35 15 19 - - -
26/10:00am - - - - - S 30 35 16 19 - - -
26/09:30am - - - - - SSE 26 35 14 19 - - -
26/09:00am - - - - - SSE 22 30 12 16 - - -
26/08:30am - - - - - SSE 20 26 11 14 - - -
26/08:00am - - - - - SE 19 20 10 11 - - -
26/07:30am - - - - - SE 13 17 7 9 - - -
26/07:00am - - - - - SE 13 15 7 8 - - -
26/06:30am - - - - - SE 17 20 9 11 - - -
26/06:00am - - - - - SSE 24 26 13 14 - - -
26/05:30am - - - - - SSE 22 24 12 13 - - -
26/05:00am - - - - - SSE 24 28 13 15 - - -
26/04:30am - - - - - SSE 19 22 10 12 - - -
26/04:00am - - - - - S 20 26 11 14 - - -
26/03:30am - - - - - SSE 15 19 8 10 - - -
26/03:00am - - - - - SSE 17 20 9 11 - - -
26/02:30am - - - - - SSE 19 22 10 12 - - -
26/02:00am - - - - - S 19 22 10 12 - - -
26/01:30am - - - - - S 15 22 8 12 - - -
26/01:00am - - - - - SSE 11 13 6 7 - - -
26/12:30am - - - - - SSW 7 13 4 7 - - -
26/12:00am - - - - - SSE 11 15 6 8 - - -
 
Date/Time
CDT
Temp
°C
App
Temp
°C
Dew
Point
Rel
Hum
%
Delta-T
°C
Wind Press
QNH
hPa
Press
MSL
hPa
Rain
since 9 am
mm
Dir
 
Spd
km/h
Gust
km/h
Spd
kts
Gust
kts
25/11:30pm - - - - - S 9 17 5 9 - - -
25/11:00pm - - - - - S 13 15 7 8 - - -
25/10:30pm - - - - - S 15 19 8 10 - - -
25/10:00pm - - - - - S 15 20 8 11 - - -
25/09:30pm - - - - - S 9 13 5 7 - - -
25/09:00pm - - - - - S 17 24 9 13 - - -
25/08:30pm - - - - - S 20 28 11 15 - - -
25/08:00pm - - - - - S 26 37 14 20 - - -
25/07:30pm - - - - - S 24 39 13 21 - - -
25/07:00pm - - - - - S 22 37 12 20 - - -
25/06:30pm - - - - - SSW 17 28 9 15 - - -
25/06:00pm - - - - - SSW 17 32 9 17 - - -
25/05:30pm - - - - - SSW 15 26 8 14 - - -
25/05:00pm - - - - - S 17 30 9 16 - - -
25/04:30pm - - - - - SSW 15 24 8 13 - - -
25/04:00pm - - - - - SSW 11 24 6 13 - - -
25/03:30pm - - - - - SW 11 26 6 14 - - -
25/03:00pm - - - - - WSW 13 28 7 15 - - -
25/02:30pm - - - - - WNW 11 24 6 13 - - -
25/02:00pm - - - - - W 11 22 6 12 - - -
25/01:30pm - - - - - WNW 15 33 8 18 - - -
25/01:00pm - - - - - W 11 28 6 15 - - -
25/12:30pm - - - - - WNW 11 24 6 13 - - -
25/12:00pm - - - - - WNW 13 24 7 13 - - -
25/11:30am - - - - - WNW 13 26 7 14 - - -
25/11:00am - - - - - W 11 24 6 13 - - -
25/10:30am - - - - - W 13 24 7 13 - - -
25/10:00am - - - - - W 9 24 5 13 - - -
25/09:30am - - - - - W 11 22 6 12 - - -
25/09:00am - - - - - SW 11 26 6 14 - - -
25/08:30am - - - - - SSW 13 24 7 13 - - -
25/08:00am - - - - - SSW 11 19 6 10 - - -
25/07:30am - - - - - SSW 11 17 6 9 - - -
25/07:00am - - - - - SSW 9 13 5 7 - - -
25/06:30am - - - - - SW 13 20 7 11 - - -
25/06:00am - - - - - SW 11 22 6 12 - - -
25/05:30am - - - - - SW 11 20 6 11 - - -
25/05:00am - - - - - SW 9 17 5 9 - - -
25/04:30am - - - - - SW 11 19 6 10 - - -
25/04:00am - - - - - SW 13 22 7 12 - - -
25/03:30am - - - - - SSW 11 17 6 9 - - -
25/03:00am - - - - - SW 11 19 6 10 - - -
25/02:30am - - - - - SW 11 19 6 10 - - -
25/02:00am - - - - - SW 13 22 7 12 - - -
25/01:30am - - - - - SW 11 28 6 15 - - -
25/01:00am - - - - - SW 9 19 5 10 - - -
25/12:30am - - - - - SW 13 26 7 14 - - -
25/12:00am - - - - - SW 15 37 8 20 - - -
 
Date/Time
CDT
Temp
°C
App
Temp
°C
Dew
Point
Rel
Hum
%
Delta-T
°C
Wind Press
QNH
hPa
Press
MSL
hPa
Rain
since 9 am
mm
Dir
 
Spd
km/h
Gust
km/h
Spd
kts
Gust
kts
24/11:30pm - - - - - SW 13 28 7 15 - - -
24/11:00pm - - - - - WSW 11 26 6 14 - - -
24/10:30pm - - - - - WNW 15 30 8 16 - - -
24/10:00pm - - - - - W 13 30 7 16 - - -
24/09:30pm - - - - - WNW 13 26 7 14 - - -
24/09:00pm - - - - - WNW 19 33 10 18 - - -
24/08:30pm - - - - - WNW 17 33 9 18 - - -
24/08:00pm - - - - - WNW 19 35 10 19 - - -
24/07:30pm - - - - - WNW 15 28 8 15 - - -
24/07:00pm - - - - - WNW 15 30 8 16 - - -
24/06:30pm - - - - - WNW 17 32 9 17 - - -
24/06:00pm - - - - - W 17 33 9 18 - - -
24/05:30pm - - - - - WNW 19 33 10 18 - - -
24/05:00pm - - - - - WNW 19 35 10 19 - - -
24/04:30pm - - - - - WNW 17 30 9 16 - - -
24/04:00pm - - - - - WNW 15 26 8 14 - - -
24/03:30pm - - - - - WNW 13 30 7 16 - - -
24/03:00pm - - - - - WNW 15 30 8 16 - - -
24/02:30pm - - - - - W 15 32 8 17 - - -
24/02:00pm - - - - - WNW 17 28 9 15 - - -
24/01:30pm - - - - - WNW 15 32 8 17 - - -
24/01:00pm - - - - - WNW 15 28 8 15 - - -
24/12:30pm - - - - - WNW 13 28 7 15 - - -
24/12:00pm - - - - - NW 15 28 8 15 - - -

Other Formats:

Comma delimited format used in spreadsheet applications
http://www.bom.gov.au/fwo/IDS60801/IDS60801.95679.axf

JavaScript Object Notation format (JSON) in row-major order
http://www.bom.gov.au/fwo/IDS60801/IDS60801.95679.json